CW3996 Weather Reports


time (UTC)temp
C
wind
direction
speed
KPH
gust
KPH
rain 1hr
cm
rain 24hr
cm
rain mn
cm
humidity
%
barometer
mb
20260502183246 19 25 3.2 9.7 0.00 0.00 0.00 7 1020.9
20260502182719 19 25 1.6 9.7 0.00 0.00 0.00 9 1020.9
20260502182232 19 25 6.4 14.5 0.00 0.00 0.00 8 1021.0
20260502181726 20 24 9.7 14.5 0.00 0.00 0.00 7 1021.1
20260502181240 19 38 6.4 14.5 0.00 0.00 0.00 8 1021.2
20260502180737 19 39 3.2 17.7 0.00 0.00 0.00 12 1021.2
20260502180251 19 39 3.2 17.7 0.00 0.00 0.00 12 1021.3
20260502170218 17 42 6.4 9.7 0.00 0.00 0.00 15 1021.8
20260502164215 16 44 3.2 6.4 0.00 0.00 0.00 18 1021.8
20260502163729 15 44 3.2 6.4 0.00 0.00 0.00 19 1021.8
20260502163227 15 44 3.2 9.7 0.00 0.00 0.00 21 1021.8
20260502162721 15 44 6.4 9.7 0.00 0.00 0.00 19 1021.9
20260502162215 15 44 1.6 8.0 0.00 0.00 0.00 18 1021.9
20260502161728 15 44 3.2 6.4 0.00 0.00 0.00 19 1021.9
20260502161222 15 44 3.2 6.4 0.00 0.00 0.00 20 1021.9
20260502160715 15 44 3.2 6.4 0.00 0.00 0.00 20 1021.9
20260502160231 14 44 0.0 8.0 0.00 0.00 0.00 20 1021.9
20260502152231 13 44 3.2 9.7 0.00 0.00 0.00 23 1021.8
20260502151726 13 44 6.4 9.7 0.00 0.00 0.00 22 1021.7
20260502151240 13 44 3.2 8.0 0.00 0.00 0.00 24 1021.7
20260502150713 13 44 4.8 6.4 0.00 0.00 0.00 22 1021.6
20260502150232 12 44 3.2 6.4 0.00 0.00 0.00 23 1021.6
20260502130716 7 44 4.8 9.7 0.00 0.00 0.00 27 1021.1
20260502130232 6 44 6.4 9.7 0.00 0.00 0.00 29 1021.0
20260502123723 8 44 6.4 14.5 0.00 0.00 0.00 23 1020.9
20260502123218 8 44 9.7 17.7 0.00 0.00 0.00 22 1020.8
20260502122731 8 44 9.7 17.7 0.00 0.00 0.00 24 1020.8
20260502122225 7 44 11.3 17.7 0.00 0.00 0.00 26 1020.7
20260502121739 7 30 12.9 16.1 0.00 0.00 0.00 28 1020.7
20260502121233 6 30 4.8 12.9 0.00 0.00 0.00 31 1020.8
20260502120727 7 30 6.4 12.9 0.00 0.00 0.00 26 1020.8
20260502120227 7 30 6.4 12.9 0.00 0.00 0.00 29 1020.8
20260502115720 6 30 8.0 14.5 0.00 0.00 0.00 30 1020.8
20260502115235 7 30 8.0 14.5 0.00 0.00 0.00 28 1020.8
20260502114728 7 30 9.7 14.5 0.00 0.00 0.00 28 1020.9
20260502114222 7 30 9.7 14.5 0.00 0.00 0.00 26 1020.9
20260502113716 7 30 8.0 16.1 0.00 0.00 0.00 27 1020.9
20260502113230 7 30 12.9 16.1 0.00 0.00 0.00 26 1020.8
20260502112724 8 30 9.7 14.5 0.00 0.00 0.00 24 1020.9
20260502112222 7 27 11.3 16.1 0.00 0.00 0.00 26 1020.9
20260502111716 7 26 9.7 16.1 0.00 0.00 0.00 27 1020.9
20260502111231 6 26 8.0 9.7 0.00 0.00 0.00 30 1020.9
20260502110724 6 26 4.8 9.7 0.00 0.00 0.00 30 1020.8
20260502110220 7 26 1.6 8.0 0.00 0.00 0.00 27 1020.9
20260502105713 7 26 0.0 14.5 0.00 0.00 0.00 24 1020.9
20260502105227 8 26 6.4 16.1 0.00 0.00 0.00 24 1020.9
20260502104741 8 25 11.3 16.1 0.00 0.00 0.00 24 1020.8
20260502104218 7 22 9.7 16.1 0.00 0.00 0.00 28 1020.8
20260502103752 7 20 8.0 14.5 0.00 0.00 0.00 29 1020.9
20260502103225 7 20 6.4 14.5 0.00 0.00 0.00 29 1020.9
20260502102719 7 20 8.0 16.1 0.00 0.00 0.00 27 1020.9
20260502102232 6 20 8.0 16.1 0.00 0.00 0.00 31 1020.8
20260502101725 6 19 11.3 14.5 0.00 0.00 0.00 34 1020.8
20260502101220 6 19 11.3 14.5 0.00 0.00 0.00 32 1020.8
20260502100714 6 19 12.9 14.5 0.00 0.00 0.00 32 1020.9
20260502100227 6 19 9.7 12.9 0.00 0.00 0.00 33 1020.9
20260502091232 6 19 6.4 12.9 0.00 0.00 0.00 36 1020.9
20260502090726 6 19 3.2 8.0 0.00 0.00 0.00 38 1020.9
20260502090220 6 19 4.8 8.0 0.00 0.00 0.00 37 1020.9
20260502071214 10 19 3.2 9.7 0.00 0.00 0.00 26 1020.6
20260502070748 10 19 4.8 8.0 0.00 0.00 0.00 28 1020.7
20260502070226 10 19 4.8 6.4 0.00 0.00 0.00 26 1020.6
20260502065739 10 19 3.2 4.8 0.00 0.00 0.00 26 1020.5
20260502065234 9 19 0.0 1.6 0.00 0.00 0.00 32 1020.5
20260502064726 10 19 0.0 4.8 0.00 0.00 0.00 30 1020.5
20260502064221 10 19 1.6 4.8 0.00 0.00 0.00 28 1020.4
20260502063714 10 19 0.0 9.7 0.00 0.00 0.00 26 1020.3
20260502063229 9 19 6.4 9.7 0.00 0.00 0.00 30 1020.3
20260502062742 8 19 6.4 9.7 0.00 0.00 0.00 31 1020.3
20260502062215 8 19 3.2 12.9 0.00 0.00 0.00 33 1020.4
20260502061248 9 19 6.4 11.3 0.00 0.00 0.00 31 1020.4
20260502060720 10 19 3.2 9.7 0.00 0.00 0.00 29 1020.4
20260502060215 9 19 6.4 9.7 0.00 0.00 0.00 30 1020.4
20260502055729 9 19 4.8 9.7 0.00 0.00 0.00 30 1020.4
20260502055223 9 19 4.8 12.9 0.00 0.00 0.00 28 1020.3
20260502054717 10 19 3.2 12.9 0.00 0.00 0.00 26 1020.2
20260502054230 10 19 4.8 16.1 0.00 0.00 0.00 26 1020.2
20260502053725 10 19 6.4 16.1 0.00 0.00 0.00 25 1020.2
20260502053223 10 19 9.7 14.5 0.00 0.00 0.00 26 1020.2
20260502052716 10 19 8.0 14.5 0.00 0.00 0.00 27 1020.2
20260502052231 10 19 8.0 16.1 0.00 0.00 0.00 27 1020.2
20260502051726 9 19 9.7 16.1 0.00 0.00 0.00 29 1020.2
20260502051240 9 19 6.4 9.7 0.00 0.00 0.00 31 1020.2
20260502050732 9 19 6.4 16.1 0.00 0.00 0.00 30 1020.2
20260502050226 10 19 9.7 16.1 0.00 0.00 0.00 30 1020.2
20260502045739 10 18 8.0 14.5 0.00 0.00 0.00 28 1020.2
20260502045232 10 18 8.0 14.5 0.00 0.00 0.00 26 1020.2
20260502044731 10 18 11.3 14.5 0.00 0.00 0.00 26 1020.2
20260502044222 10 13 11.3 14.5 0.00 0.00 0.00 28 1020.1
20260502043716 10 345 8.0 12.9 0.00 0.00 0.00 27 1020.1
20260502043229 10 345 8.0 14.5 0.00 0.00 0.00 28 1020.1
20260502042723 9 344 8.0 14.5 0.00 0.00 0.00 30 1020.0
20260502042217 9 343 8.0 14.5 0.00 0.00 0.00 31 1020.0
20260502041730 9 342 11.3 14.5 0.00 0.00 0.00 30 1019.9
20260502041225 9 339 6.4 8.0 0.00 0.00 0.00 29 1019.8
20260502040723 9 338 4.8 8.0 0.00 0.00 0.00 32 1019.8
20260502040238 9 338 3.2 6.4 0.00 0.00 0.00 32 1019.7
20260502035730 10 338 3.2 4.8 0.00 0.00 0.00 30 1019.6
20260502035244 10 338 1.6 4.8 0.00 0.00 0.00 28 1019.5
20260502034717 11 338 3.2 4.8 0.00 0.00 0.00 25 1019.4
20260502034231 11 338 0.0 1.6 0.00 0.00 0.00 24 1019.3
20260502033725 12 338 0.0 4.8 0.00 0.00 0.00 24 1019.2
20260502033239 12 338 0.0 6.4 0.00 0.00 0.00 22 1019.2
20260502032732 12 338 3.2 12.9 0.00 0.00 0.00 22 1019.1
20260502032226 12 338 3.2 12.9 0.00 0.00 0.00 24 1019.0
20260502031723 12 336 0.0 12.9 0.00 0.00 0.00 24 1019.0
20260502031217 12 336 8.0 12.9 0.00 0.00 0.00 22 1018.8
20260502030732 12 336 6.4 9.7 0.00 0.00 0.00 22 1018.8
20260502030227 12 335 4.8 6.4 0.00 0.00 0.00 23 1018.6
20260502025721 12 335 4.8 6.4 0.00 0.00 0.00 22 1018.6
20260502025215 12 334 1.6 6.4 0.00 0.00 0.00 24 1018.6
20260502024729 13 335 1.6 9.7 0.00 0.00 0.00 23 1018.5
20260502024243 13 335 3.2 14.5 0.00 0.00 0.00 21 1018.4
20260502023720 14 335 4.8 14.5 0.00 0.00 0.00 18 1018.3
20260502023215 14 335 6.4 17.7 0.00 0.00 0.00 18 1018.3
20260502022729 15 335 9.7 19.3 0.00 0.00 0.00 18 1018.3
20260502022223 15 336 8.0 19.3 0.00 0.00 0.00 17 1018.2
20260502021716 15 337 6.4 14.5 0.00 0.00 0.00 17 1018.2
20260502021231 15 338 6.4 16.1 0.00 0.00 0.00 16 1018.1
20260502020724 15 338 6.4 17.7 0.00 0.00 0.00 15 1018.1
20260502020239 16 338 8.0 17.7 0.00 0.00 0.00 13 1018.0
20260502015715 16 342 4.8 12.9 0.00 0.00 0.00 8 1018.0
20260502015228 16 342 6.4 12.9 0.00 0.00 0.00 7 1018.0
20260502014722 16 342 4.8 14.5 0.00 0.00 0.00 8 1017.9
20260502014216 17 342 8.0 14.5 0.00 0.00 0.00 5 1017.9
20260502013730 17 342 6.4 14.5 0.00 0.00 0.00 4 1017.9
20260502013225 17 342 8.0 14.5 0.00 0.00 0.00 5 1017.9
20260502012719 17 341 4.8 12.9 0.00 0.00 0.00 7 1017.8
20260502012232 17 341 6.4 16.1 0.00 0.00 0.00 8 1017.9
20260502011730 17 341 6.4 17.7 0.00 0.00 0.00 5 1017.8
20260502011225 17 342 9.7 17.7 0.00 0.00 0.00 4 1017.8
20260502010738 17 342 12.9 17.7 0.00 0.00 0.00 4 1017.7
20260502010232 18 338 6.4 14.5 0.00 0.00 0.00 3 1017.8
20260502005726 18 337 6.4 17.7 0.00 0.00 0.00 4 1017.8
20260502005241 18 337 11.3 20.9 0.00 0.00 0.00 5 1017.8
20260502004228 18 342 11.3 24.1 0.00 0.00 0.00 5 1017.8
20260502003742 18 344 8.0 14.5 0.00 0.00 0.00 5 1017.7
20260502003220 18 344 4.8 14.5 0.00 0.00 0.00 4 1017.8
20260502002714 18 344 6.4 22.5 0.00 0.00 0.00 4 1017.8
20260502002248 18 344 8.0 22.5 0.00 0.00 0.00 3 1017.8
20260502001721 18 9 6.4 22.5 0.00 0.00 0.00 4 1017.8
20260502001216 18 9 11.3 22.5 0.00 0.00 0.00 5 1017.8
20260502000749 18 20 4.8 17.7 0.00 0.00 0.00 3 1017.9
20260502000244 18 20 6.4 17.7 0.00 0.00 0.00 4 1017.8
20260501235736 19 19 4.8 14.5 0.00 0.00 0.00 4 1017.9
20260501235229 19 19 4.8 20.9 0.00 0.00 0.00 4 1017.9
20260501234723 18 19 9.7 20.9 0.00 0.00 0.00 5 1017.8
20260501234237 18 21 9.7 20.9 0.00 0.00 0.00 4 1017.8
20260501233715 19 22 12.9 20.9 0.00 0.00 0.00 7 1017.9
20260501233229 18 31 11.3 20.9 0.00 0.00 0.00 7 1017.9
20260501232723 19 31 12.9 20.9 0.00 0.00 0.00 6 1017.9
20260501232217 19 34 12.9 29.0 0.00 0.00 0.00 7 1017.8
20260501231751 19 34 16.1 29.0 0.00 0.00 0.00 7 1017.8
20260501231224 19 321 9.7 19.3 0.00 0.00 0.00 7 1017.7
20260501230718 18 337 6.4 19.3 0.00 0.00 0.00 9 1017.8
20260501230214 19 337 8.0 19.3 0.00 0.00 0.00 6 1017.9
20260501225732 18 336 6.4 25.7 0.00 0.00 0.00 8 1017.9
20260501225226 19 336 16.1 25.7 0.00 0.00 0.00 9 1017.9
20260501224740 20 309 11.3 27.4 0.00 0.00 0.00 7 1017.9
20260501224213 19 309 14.5 27.4 0.00 0.00 0.00 8 1017.9
20260501223747 19 341 4.8 19.3 0.00 0.00 0.00 6 1018.0
20260501223220 18 339 8.0 17.7 0.00 0.00 0.00 8 1018.0
20260501222714 19 336 8.0 22.5 0.00 0.00 0.00 7 1018.1
20260501222228 19 336 12.9 24.1 0.00 0.00 0.00 7 1018.2
20260501221722 19 338 8.0 24.1 0.00 0.00 0.00 7 1018.2
20260501221220 18 344 12.9 24.1 0.00 0.00 0.00 8 1018.3
20260501220714 18 342 8.0 16.1 0.00 0.00 0.00 10 1018.3
20260501220229 18 342 6.4 20.9 0.00 0.00 0.00 8 1018.4
20260501215722 18 342 8.0 20.9 0.00 0.00 0.00 7 1018.5
20260501215236 18 344 8.0 25.7 0.00 0.00 0.00 8 1018.6
20260501214729 19 344 14.5 25.7 0.00 0.00 0.00 8 1018.7
20260501214224 19 344 12.9 24.1 0.00 0.00 0.00 10 1018.7
20260501213737 19 336 9.7 20.9 0.00 0.00 0.00 11 1018.6
20260501213215 18 342 6.4 19.3 0.00 0.00 0.00 10 1018.7
20260501212728 19 343 12.9 20.9 0.00 0.00 0.00 8 1018.8
20260501212223 18 337 11.3 27.4 0.00 0.00 0.00 11 1018.9
20260501211737 18 336 16.1 27.4 0.00 0.00 0.00 9 1019.0
20260501211231 18 341 11.3 22.5 0.00 0.00 0.00 11 1019.0
20260501210724 18 342 12.9 20.9 0.00 0.00 0.00 13 1019.0
20260501210220 18 338 9.7 19.3 0.00 0.00 0.00 10 1019.0
20260501205733 18 338 14.5 19.3 0.00 0.00 0.00 10 1019.0
20260501205227 18 338 9.7 22.5 0.00 0.00 0.00 11 1019.0
20260501204724 18 344 14.5 22.5 0.00 0.00 0.00 10 1019.1
20260501204217 18 29 11.3 17.7 0.00 0.00 0.00 12 1019.0
20260501203731 18 29 3.2 27.4 0.00 0.00 0.00 12 1019.1
20260501203225 18 29 14.5 27.4 0.00 0.00 0.00 12 1019.3
20260501202719 18 344 12.9 22.5 0.00 0.00 0.00 13 1019.1
20260501202233 18 332 9.7 24.1 0.00 0.00 0.00 10 1019.1
20260501201727 18 336 9.7 24.1 0.00 0.00 0.00 12 1019.1
20260501201221 18 332 6.4 27.4 0.00 0.00 0.00 12 1019.1
20260501200718 18 332 12.9 27.4 0.00 0.00 0.00 12 1019.2
20260501200234 18 331 14.5 22.5 0.00 0.00 0.00 11 1019.3
20260501195728 18 9 4.8 17.7 0.00 0.00 0.00 12 1019.3
20260501195221 18 9 4.8 24.1 0.00 0.00 0.00 12 1019.3
20260501194716 17 9 12.9 24.1 0.00 0.00 0.00 12 1019.3
20260501194229 17 26 8.0 29.0 0.00 0.00 0.00 14 1019.3
20260501193743 17 30 16.1 29.0 0.00 0.00 0.00 15 1019.5
20260501193216 17 331 16.1 27.4 0.00 0.00 0.00 14 1019.5
20260501192714 16 337 4.8 16.1 0.00 0.00 0.00 11 1019.5
20260501192228 17 338 6.4 19.3 0.00 0.00 0.00 10 1019.6
20260501191722 17 339 11.3 22.5 0.00 0.00 0.00 12 1019.7
20260501191216 17 336 14.5 22.5 0.00 0.00 0.00 15 1019.7
20260501190729 16 337 11.3 22.5 0.00 0.00 0.00 13 1019.7
20260501190225 16 343 9.7 22.5 0.00 0.00 0.00 14 1019.8
20260501185718 17 11 9.7 22.5 0.00 0.00 0.00 13 1019.8
20260501185216 17 12 9.7 19.3 0.00 0.00 0.00 15 1019.8
20260501184730 16 18 3.2 19.3 0.00 0.00 0.00 14 1019.9
20260501184244 16 17 6.4 19.3 0.00 0.00 0.00 17 1020.0
20260501183737 16 17 11.3 19.3 0.00 0.00 0.00 17 1020.1